Total_Precipitation_Accumulation
1.89 1.98 2.23 1.84 1.58 1.40 1.36 1.41 1.47 1.54 1.55 1.69 1.77 1.68 1.67 1.75 1.88 1.86 1.81 1.79 1.82 1.90 2.00 2.19 2.28 2.37 2.26 2.18 1.96 1.89 1.81 1.62 1.53 1.46 1.31 1.25 1.40 1.70 1.93 2.15 2.11 1.58 1.54
1.35 1.48 1.75 1.53 1.44 1.36 1.35 1.44 1.49 1.57 1.63 1.70 1.77 1.77 1.78 1.85 1.85 1.74 1.71 1.76 1.89 1.90 1.84 1.90 1.98 1.99 1.86 1.75 1.59 1.61 1.59 1.68 1.70 1.62 1.47 1.26 1.41 1.68 1.88 2.02 2.05 1.54 1.58
0.78 0.98 1.20 1.32 1.35 1.31 1.30 1.48 1.57 1.59 1.63 1.66 1.79 1.88 1.96 1.98 1.87 1.74 1.72 1.76 1.84 1.82 1.77 1.78 1.80 1.71 1.49 1.40 1.42 1.48 1.55 1.85 1.88 1.91 1.84 1.16 1.04 1.52 1.71 1.74 1.59 1.35 1.40
0.66 0.81 0.93 1.12 1.14 1.09 1.12 1.19 1.35 1.47 1.44 1.52 1.77 1.87 1.95 1.89 1.79 1.73 1.64 1.67 1.77 1.86 1.92 1.80 1.67 1.52 1.32 1.26 1.29 1.35 1.56 1.97 2.04 2.13 1.99 1.24 0.80 1.24 1.56 1.47 1.24 1.17 1.15
0.68 0.86 0.93 0.92 0.84 0.80 0.81 0.91 1.13 1.29 1.42 1.52 1.65 1.70 1.75 1.70 1.69 1.61 1.54 1.63 1.78 1.99 2.05 1.82 1.56 1.37 1.22 1.09 1.07 1.23 1.56 2.05 2.20 1.95 1.51 1.29 1.06 1.26 1.40 1.32 1.16 1.15 1.08
0.65 0.70 0.71 0.72 0.66 0.67 0.71 0.84 0.98 1.09 1.27 1.44 1.46 1.52 1.62 1.70 1.67 1.57 1.60 1.74 1.94 2.07 1.92 1.68 1.43 1.28 1.18 1.04 1.08 1.25 1.49 2.03 2.05 1.49 1.20 1.12 0.99 1.17 1.29 1.36 1.30 1.36 1.22
0.43 0.48 0.54 0.62 0.59 0.62 0.64 0.75 0.92 1.08 1.21 1.21 1.28 1.54 1.69 1.72 1.72 1.75 1.74 1.88 1.97 1.92 1.76 1.63 1.40 1.28 1.14 1.08 1.16 1.30 1.48 1.77 1.71 1.28 1.21 1.21 0.98 1.04 1.23 1.40 1.47 1.49 1.35
0.31 0.43 0.55 0.62 0.61 0.61 0.63 0.73 0.90 1.02 1.09 1.14 1.25 1.41 1.54 1.61 1.69 1.79 1.85 1.94 1.90 1.84 1.67 1.51 1.31 1.24 1.20 1.15 1.16 1.24 1.36 1.40 1.25 1.19 1.00 0.96 0.83 0.94 1.15 1.33 1.42 1.42 1.34
0.43 0.50 0.63 0.68 0.71 0.75 0.85 0.93 1.05 1.10 1.17 1.23 1.28 1.33 1.35 1.46 1.60 1.72 1.86 1.95 1.92 1.76 1.50 1.38 1.25 1.19 1.16 1.16 1.13 1.19 1.28 1.34 1.19 1.19 0.94 0.91 0.92 1.06 1.19 1.30 1.40 1.39 1.28
0.78 0.64 0.63 0.78 0.92 0.91 0.93 1.09 1.15 1.21 1.24 1.26 1.29 1.36 1.45 1.57 1.62 1.74 1.84 2.06 2.07 1.80 1.48 1.36 1.22 1.09 1.10 1.16 1.16 1.22 1.32 1.21 0.99 1.03 1.15 0.94 1.02 1.21 1.41 1.48 1.51 1.53 1.39
1.12 0.87 0.72 0.68 0.85 1.01 1.01 1.05 1.18 1.25 1.31 1.40 1.54 1.63 1.77 1.91 1.86 2.08 2.18 2.39 2.33 2.01 1.77 1.59 1.40 1.27 1.17 1.15 1.31 1.42 1.32 1.19 1.16 1.18 1.18 1.04 1.10 1.37 1.65 1.72 1.71 1.75 1.64
1.31 1.11 0.95 0.84 0.81 0.93 0.97 1.20 1.50 1.46 1.55 1.74 2.02 2.10 2.33 2.43 2.41 2.11 2.52 2.79 2.72 2.55 2.29 2.17 1.99 1.68 1.40 1.33 1.92 1.97 1.34 1.34 1.41 1.38 1.22 1.16 1.30 1.64 1.99 1.95 1.87 1.91 1.82
1.63 1.38 1.14 1.06 1.08 1.08 1.25 1.26 1.49 1.77 2.00 2.07 2.10 2.22 2.44 2.39 2.26 2.24 2.52 2.65 2.65 2.60 2.56 2.70 2.56 2.13 2.09 2.19 2.28 2.01 1.43 1.49 1.77 1.61 1.64 1.67 1.82 2.09 2.41 2.28 2.08 1.97 1.90
1.68 1.61 1.50 1.43 1.42 1.50 1.40 1.52 1.54 1.65 1.83 1.98 2.14 2.19 2.36 2.63 2.63 2.57 2.65 2.55 2.68 2.75 3.07 2.90 3.02 2.81 2.53 2.25 2.09 1.91 1.72 1.74 1.87 2.01 2.21 1.94 2.02 2.35 2.84 2.79 2.42 2.24 2.09
2.13 2.01 1.86 1.83 1.91 1.91 1.89 1.90 1.70 1.74 1.82 1.95 2.15 2.39 2.45 2.59 2.66 2.67 2.71 2.70 2.40 2.42 2.71 2.98 2.88 3.00 3.00 2.78 2.40 2.21 2.10 2.13 2.11 2.27 2.49 2.35 2.29 2.42 2.80 3.02 2.92 2.69 2.51
2.48 2.29 2.15 2.12 2.22 2.31 2.28 2.32 2.21 1.94 2.04 2.03 2.29 2.40 2.51 2.59 2.72 2.86 2.89 2.83 2.47 2.39 2.65 2.86 2.75 3.08 3.04 3.00 2.60 2.42 2.30 2.22 2.08 2.18 2.43 2.51 2.33 2.26 2.52 3.01 3.25 3.12 3.00
2.96 2.79 2.56 2.45 2.61 2.83 2.92 2.85 2.62 2.38 2.17 2.19 2.33 2.45 2.57 2.56 2.77 2.77 2.71 2.72 2.69 2.56 2.75 2.84 2.85 3.00 2.87 2.75 2.72 2.63 2.50 2.45 2.24 2.22 2.33 2.55 2.41 2.25 2.37 2.76 3.17 3.25 3.16
3.16 3.11 2.81 2.58 3.02 3.38 3.42 3.36 3.09 2.79 2.47 2.36 2.43 2.55 2.62 2.70 2.81 2.95 2.70 2.59 2.83 2.78 2.94 3.24 3.15 3.25 3.36 3.22 2.97 2.70 2.52 2.61 2.25 2.19 2.27 2.51 2.71 2.31 2.43 2.73 3.05 3.15 3.31
3.29 3.25 3.17 3.26 3.36 3.48 3.57 3.67 3.41 3.15 2.90 2.63 2.55 2.55 2.65 2.79 2.90 3.24 3.12 3.10 3.02 3.01 3.07 2.76 3.34 3.62 3.66 3.49 2.94 2.70 2.43 2.43 2.28 2.12 2.24 2.20 2.38 2.40 2.40 2.46 2.83 2.93 3.27
3.43 3.55 3.47 3.58 3.71 3.96 4.16 4.32 3.93 3.52 3.22 2.93 2.74 2.80 2.85 3.04 3.17 3.46 3.34 3.30 3.15 3.23 3.25 3.28 3.72 3.66 3.40 3.41 2.73 2.39 2.28 2.09 2.10 2.08 1.89 1.98 2.11 2.05 2.25 2.38 2.68 2.30 2.61
3.63 3.80 3.79 4.01 4.40 4.72 4.56 4.23 4.02 3.74 3.50 3.26 2.99 2.88 2.92 2.90 3.07 3.42 3.28 3.53 3.41 3.26 3.24 3.23 3.51 3.59 3.33 3.52 3.42 2.90 2.29 1.83 1.89 1.81 1.80 1.96 1.94 2.02 2.29 2.61 2.86 2.78 2.56
3.65 4.08 4.22 4.41 4.75 4.87 4.71 4.57 4.39 4.23 3.83 3.69 3.51 3.31 2.96 2.76 2.86 2.93 3.25 3.08 3.15 3.27 3.20 3.33 3.59 3.48 3.10 3.54 3.76 3.87 3.16 2.62 2.05 1.60 1.93 2.09 2.14 2.37 2.37 2.52 2.90 3.10 2.88
2.96 3.21 3.51 4.00 4.51 4.68 4.74 4.65 4.58 4.58 4.09 3.80 3.64 3.43 3.03 2.75 2.67 2.84 3.00 3.08 3.12 3.02 3.12 3.35 3.41 3.45 3.32 3.39 3.62 3.98 3.66 3.10 2.51 1.92 1.79 2.00 2.34 2.60 2.53 2.56 2.54 2.73 2.73
2.24 2.56 2.98 3.44 3.79 4.01 4.09 4.09 4.10 4.05 3.92 3.82 3.67 3.27 2.99 2.74 2.65 2.73 2.85 2.93 2.97 2.82 2.96 2.81 2.96 3.42 3.52 3.29 3.41 3.35 3.34 3.28 3.10 2.55 2.04 1.91 2.10 2.21 2.32 2.20 2.17 2.40 2.66
2.09 2.41 2.73 3.05 3.34 3.50 3.59 3.65 3.72 3.61 3.62 3.51 3.32 3.08 2.84 2.66 2.51 2.31 2.41 2.67 2.76 2.67 2.63 2.66 2.91 3.04 3.02 3.01 3.13 3.19 3.24 3.26 2.97 2.78 2.36 2.06 1.93 1.70 1.76 1.89 1.98 2.03 2.18
2.18 2.54 2.83 3.06 3.27 3.35 3.13 3.02 3.01 3.04 3.12 3.06 2.88 2.68 2.45 2.32 2.18 2.00 2.07 2.36 2.47 2.49 2.49 2.47 2.54 2.62 2.67 2.71 2.79 2.85 3.04 3.08 2.99 3.06 2.59 2.20 2.01 1.55 1.45 1.56 1.63 1.72 1.90